Terug naar catalogus

STARLINK-31522

ActiefCommunicatieVLEO
NORAD 59204·PAYLOAD·🇺🇸 United States

Gelanceerd Mar 11, 2024 vanaf Vandenberg Space Force Base

Loading…

Volgende Passages (komende 24 uur)

TLE

VersSource: CelesTrak SupGP

Epoch: Sep 15, 2026, 03:06 UTC

1 59204C 24046D   26258.12965278  .00078378  00000+0  23152-2 0  2584
2 59204  53.1602 354.7703 0001127  84.3784 244.3221 15.34358698    14

Volg STARLINK-31522 in realtime met AllMySat

Download on the App Store